Current weather by "City, St" or "zip code"  
 

Current Conditions: Winfield / Arkansas City, Strother Field, KS

Overcast


44.0 F

Last Updated on Oct 24 2020, 7:54 pm CDT
Humidity: 63%
Wind Speed: E 6.9 mph
Barometer 30.06 in
Dewpoint: 32.0 F
Visibility: 10.00 mi
Precip: --
Heat Index: NA
Wind Chill: 40 F
Current conditions at:

Winfield / Arkansas City, Strother Field, KS (KWLD)

Lat: 37.16806 Lon: 97.03694

Local Radar Image active severe weather and emergency alerts image image weather storm and storm spotter reports image weather observation monitoring service image
Local
Radar
Active
Alerts
Storm Reports Obs
Monitoring

Sign-up For Email & Text Message Weather Alert Notification Services



Advertise Here

Observation History for Winfield / Arkansas City, Strother Field, KS


Time Wind
(mph)
Vis
(mi)
Weather Precip (in) Temperature (F) Relative
Humidity
Wind
Chill
(F)
Heat
Index
(F)
Pressure
Air Dwpt altimeter
(in)
sea level
(mb)
Rmks
7:54 pm CDT E 6.9 10.00 Overcast -- 44.0 32.0 63% 40 NA 30.06 1018.4
6:54 pm CDT E 6.9 10.00 Overcast -- 44.0 32.0 63% 40 NA 30.05 1017.9
5:54 pm CDT NE 8.1 10.00 Overcast -- 45.0 30.9 58% 41 NA 30.03 1017.5
4:54 pm CDT E 9.2 10.00 Mostly Cloudy -- 45.0 30.9 58% 40 NA 30.03 1017.4
3:54 pm CDT E 4.6 10.00 Overcast -- 44.0 30.9 60% 41 NA 30.05 1018.2
2:54 pm CDT E 5.8 10.00 Overcast -- 43.0 30.9 63% 39 NA 30.07 1018.8
1:54 pm CDT E 4.6 10.00 Overcast -- 41.0 30.0 65% 38 NA 30.11 1020.2
12:54 pm CDT E 4.6 10.00 Overcast -- 41.0 30.0 65% 38 NA 30.15 1021.6
11:54 am CDT E 6.9 10.00 Overcast -- 40.0 28.9 65% 35 NA 30.20 1023.0
10:54 am CDT E 5.8 10.00 Overcast -- 38.0 28.9 70% 34 NA 30.22 1024.1
9:54 am CDT E 6.9 10.00 Overcast -- 38.0 28.9 70% 33 NA 30.24 1024.8
8:54 am CDT E 9.2 10.00 Overcast -- 38.0 28.0 68% 32 NA 30.23 1024.2
7:54 am CDT E 5.8 10.00 Overcast -- 37.0 28.0 70% 32 NA 30.24 1024.5
6:54 am CDT E 8.1 10.00 Overcast -- 37.0 27.0 67% 31 NA 30.25 1024.9
5:54 am CDT E 6.9 10.00 Overcast -- 38.0 28.0 68% 33 NA 30.27 1025.5
4:54 am CDT NE 8.1 10.00 Overcast -- 39.0 28.9 67% 33 NA 30.27 1025.6
3:54 am CDT NE 9.2 10.00 Overcast -- 39.0 28.0 65% 33 NA 30.29 1026.3
2:54 am CDT NE 8.1 10.00 Overcast -- 40.0 28.9 65% 35 NA 30.31 1027.0
1:54 am CDT NE 11.5 10.00 Overcast -- 40.0 28.9 65% 33 NA 30.33 1027.6
12:54 am CDT NE 10.4 10.00 Overcast -- 40.0 28.9 65% 33 NA 30.35 1028.2
11:54 pm CDT NE 11.5 10.00 Overcast -- 41.0 28.9 62% 34 NA 30.36 1028.6
10:54 pm CDT NE 12.7 10.00 Overcast -- 41.0 28.9 62% 34 NA 30.36 1028.6
9:54 pm CDT N 16.1 G 24.2 10.00 Overcast -- 42.0 28.9 60% 34 NA 30.35 1028.4
8:54 pm CDT NE 15.0 G 25.3 10.00 Overcast -- 43.0 30.0 60% 36 NA 30.36 1028.5

Regional Weather Observation


McConnell Air Force Base, KS (KIAB)

Overcast
41.0 F

Wichita - Wichita Dwight D. Eisenhower National Airport, KS (KICT)

Overcast
41.0 F

Wichita Jabara Airport, KS (KAAO)

Overcast
40.0 F

Ponca City, Ponca City Municipal Airport, OK (KPNC)

Fair
42.0 F

Blackwell-Tonkawa Municipal Airport, OK (KBKN)

Mostly Cloudy
41.0 F

Newton, Newton City/County Airport, KS (KEWK)

Overcast
38.0 F